Regional Weather Roundup
Issued by NWS

Home | Current Version | Previous Version | Graphics & Text | Print | Product List | Glossary On
Versions: 1 2 3 4 5 6 7 8 9 10 11 12 13 14 15 16 17 18 19 20 21 22 23 24 25 26 27 28 29 30 31 32 33 34 35 36 37 38 39 40 41 42 43 44 45 46 47 48 49 50
000
ASUS43 KBIS 310020
RWRND

NORTH DAKOTA REGIONAL WEATHER ROUNDUP
NATIONAL WEATHER SERVICE BISMARCK ND
600 PM CST FRI JAN 30 2015

NOTE: "FAIR" INDICATES FEW OR NO CLOUDS BELOW 12,000 FEET WITH NO
SIGNIFICANT WEATHER AND/OR OBSTRUCTIONS TO VISIBILITY.


NDZ001>003-009>011-017-310100-
NORTHWEST NORTH DAKOTA

CITY           SKY/WX    TMP DP  RH WIND       PRES   REMARKS
WILLISTON      CLEAR     35  26  69 N9        30.19R
6HR MIN TEMP:  35; 6HR MAX TEMP:  41;

MINOT          CLOUDY    27  22  81 NW18      30.18R WCI  14
MINOT AFB      CLOUDY    25  24  99 N16       30.18R WCI  12
$$

NDZ018>021-031>035-040>046-310100-
SOUTHWEST NORTH DAKOTA

CITY           SKY/WX    TMP DP  RH WIND       PRES   REMARKS
BISMARCK       CLEAR     39  28  64 NW12      30.15R
6HR MIN TEMP:  34; 6HR MAX TEMP:  47;

DICKINSON      CLEAR     37  25  61 N9        30.13S
GARRISON         N/A     31  27  85 CALM      30.15R
6HR MIN TEMP:  31; 6HR MAX TEMP:  41; 6HR PCP:  0.01;

HETTINGER ARPT CLEAR     37  24  59 N8        30.14S
$$

NDZ004>008-012>016-024-026-027-054-310100-
NORTHEAST NORTH DAKOTA

CITY           SKY/WX    TMP DP  RH WIND       PRES   REMARKS
GRAND FORKS    CLEAR     27  21  78 NW7       30.11R WCI  19
GRND FRKS AFB  CLOUDY    30  23  74 N9        30.13R
DEVILS LAKE    CLOUDY    25  19  80 N18       30.15R WCI  11
$$

NDZ022-023-025-028>030-036>039-047>053-310100-
SOUTHEAST NORTH DAKOTA

CITY           SKY/WX    TMP DP  RH WIND       PRES   REMARKS
FARGO          CLEAR     30  24  78 S8        30.12F
6HR MIN TEMP:  23; 6HR MAX TEMP:  34;

JAMESTOWN      CLEAR     31  25  78 NW9       30.11R
$$



USA.gov is the U.S. government's official web portal to all federal, state and local government web resources and services.